BUS_NAME,NETWORK_OPERATOR_ID,CONNECTION_TYPE,PARTY,UNIT_OF_MEASURE,FLOW,STATUS,MD_DATE,TP1,TP2,TP3,TP4,TP5,TP6,TP7,TP8,TP9,TP10,TP11,TP12,TP13,TP14,TP15,TP16,TP17,TP18,TP19,TP20,TP21,TP22,TP23,TP24,TP25,TP26,TP27,TP28,TP29,TP30,TP31,TP32,TP33,TP34,TP35,TP36,TP37,TP38,TP39,TP40,TP41,TP42,TP43,TP44,TP45,TP46,TP47,TP48,TP49,TP50,CHECKSUM
LFD1102,VECT,GD,CTCT,kWh,X,F,09/04/2001,427,447,435,482,455,469,442,460,428,420,367,374,371,369,369,407,423,440,446,501,503,501,477,490,489,442,421,450,415,454,482,509,489,538,499,461,461,457,418,432,389,395,360,375,382,449,427,439,21136
LFD1102,VECT,GD,CTCT,kWh,X,F,10/04/2001,424,399,412,445,495,444,436,400,421,433,438,423,424,348,348,413,494,723,690,457,412,479,446,488,456,524,508,570,562,567,610,600,535,495,480,453,435,450,390,392,379,387,408,426,432,433,455,441,22280
LFD1102,VECT,GD,CTCT,kWh,X,F,11/04/2001,412,419,444,473,445,459,376,362,347,329,356,371,318,369,414,408,410,432,482,503,517,533,535,551,569,542,536,518,537,524,446,464,531,488,428,384,361,347,330,357,414,383,370,373,389,418,423,404,20801
LFD1102,VECT,GD,CTCT,kWh,X,F,12/04/2001,442,437,415,452,439,471,476,462,472,406,393,382,358,371,387,368,415,435,441,438,440,484,507,517,527,496,503,482,472,467,487,472,446,485,494,450,426,342,347,366,347,341,352,366,344,325,310,338,20393
LFD1102,VECT,GD,CTCT,kWh,X,F,13/04/2001,284,276,273,306,306,274,290,312,288,299,311,318,358,356,377,401,405,401,451,461,482,502,501,504,510,469,446,439,393,374,370,391,417,395,358,441,515,486,454,431,415,378,319,307,315,275,288,311,18233
LFD1102,VECT,GD,CTCT,kWh,X,F,14/04/2001,323,299,311,321,305,279,271,276,271,295,279,307,316,322,364,385,410,400,425,432,419,435,447,430,470,456,477,491,536,485,540,451,375,378,366,368,394,389,381,403,336,349,388,386,349,370,370,344,18174
LFD1102,VECT,GD,CTCT,kWh,X,F,15/04/2001,331,352,398,393,413,413,371,361,337,285,252,301,309,317,376,392,352,355,435,453,453,451,490,534,539,506,498,500,455,444,458,413,381,392,333,344,359,351,359,362,369,335,347,352,356,347,355,337,18616
LFD1102,VECT,GD,CTCT,kWh,X,F,16/04/2001,301,359,358,389,415,370,320,343,339,304,323,308,306,321,381,353,399,323,368,404,364,417,437,410,406,475,461,432,429,484,423,438,379,359,386,386,429,411,401,410,374,371,360,324,330,354,324,350,18108
LFD1102,VECT,GD,CTCT,kWh,X,F,17/04/2001,369,318,349,391,379,415,360,341,313,279,297,309,322,356,355,412,415,379,410,437,424,480,521,490,506,501,481,440,454,438,473,467,441,437,402,401,357,341,361,347,358,367,349,359,373,355,380,368,18877
LFD1102,VECT,GD,CTCT,kWh,X,F,18/04/2001,370,393,385,366,368,309,305,295,295,276,286,295,298,379,420,426,453,461,422,425,450,462,463,453,435,445,422,369,363,367,368,380,424,458,406,406,411,385,383,441,402,400,381,376,366,355,365,384,18547
LFD1102,VECT,GD,CTCT,kWh,X,F,19/04/2001,371,360,372,334,330,297,295,294,333,307,311,296,348,413,460,510,527,538,528,488,488,500,472,496,472,435,458,464,468,460,464,446,393,405,388,395,364,357,383,395,368,364,365,359,333,364,340,310,19218
LFD1102,VECT,GD,CTCT,kWh,X,F,20/04/2001,364,339,328,340,387,356,351,320,329,298,322,314,314,363,369,420,447,454,457,476,490,530,491,495,533,489,466,455,483,464,422,414,403,400,381,412,383,397,404,385,371,405,425,392,354,353,350,379,19274
LFD1102,VECT,GD,CTCT,kWh,X,F,21/04/2001,404,414,399,440,439,426,395,345,350,339,339,347,369,370,375,398,392,407,460,466,481,452,447,501,475,443,489,482,493,446,482,475,454,380,377,376,389,398,399,388,385,380,366,379,373,375,394,405,19758
LFD1102,VECT,GD,CTCT,kWh,X,F,22/04/2001,401,377,408,417,445,425,420,371,347,334,318,378,365,367,408,426,403,370,392,423,469,445,451,485,467,487,525,524,583,501,501,472,419,399,404,384,456,447,417,435,410,407,442,413,374,357,336,354,20159
LFD1102,VECT,GD,CTCT,kWh,X,F,23/04/2001,371,370,405,408,383,334,361,350,325,360,340,338,373,339,360,398,417,434,433,453,454,430,440,470,463,472,470,485,456,455,511,510,514,461,505,461,437,442,441,428,411,426,426,407,390,392,393,394,20096
LFD1102,VECT,GD,CTCT,kWh,X,F,24/04/2001,383,379,400,427,408,392,396,412,397,329,332,341,360,359,379,398,388,402,401,414,413,418,444,430,419,483,489,488,495,525,499,444,410,409,456,437,412,423,419,411,407,407,415,416,380,388,371,373,19778
LFD1102,VECT,GD,CTCT,kWh,X,F,25/04/2001,367,367,372,405,385,404,389,333,335,326,304,322,343,337,324,331,360,389,398,405,377,369,369,359,405,417,406,426,415,429,426,432,458,427,479,422,379,361,360,344,333,342,326,356,381,407,388,412,18201
LFD1102,VECT,GD,CTCT,kWh,X,F,26/04/2001,372,374,390,392,407,407,417,425,421,402,375,346,334,383,379,401,381,379,389,411,405,456,458,412,419,436,468,437,461,455,527,505,498,499,489,491,489,467,377,387,426,389,410,398,383,387,394,378,20086
LFD1102,VECT,GD,CTCT,kWh,X,F,27/04/2001,361,356,395,364,357,353,338,341,333,360,304,283,286,373,381,435,427,456,450,466,479,450,438,436,382,435,406,352,337,320,305,336,342,365,414,355,370,370,388,369,355,415,414,350,331,278,279,289,17779
LFD1102,VECT,GD,CTCT,kWh,X,F,28/04/2001,292,270,260,259,249,290,234,247,275,272,306,329,331,348,309,384,376,383,389,425,415,386,402,390,391,428,394,388,393,396,433,387,406,422,445,416,391,358,341,323,348,328,301,344,337,330,325,347,16793
LFD1102,VECT,GD,CTCT,kWh,X,F,29/04/2001,314,301,344,343,334,310,309,329,351,359,354,366,384,375,382,414,424,379,339,382,332,279,349,347,307,320,352,363,384,380,391,386,417,464,441,453,460,425,399,401,401,384,408,388,414,406,371,366,17881
LFD1102,VECT,GD,CTCT,kWh,X,F,30/04/2001,348,344,325,339,338,366,372,399,383,353,366,415,425,400,433,426,429,387,363,331,312,339,325,365,350,370,401,391,354,398,423,434,437,474,508,439,436,434,424,406,424,474,427,409,415,405,368,400,18884
LFD1102,VECT,GD,CTCT,kWh,X,F,01/05/2001,382,389,384,373,353,388,418,388,379,379,402,379,383,364,402,459,456,458,401,421,413,400,375,310,332,331,366,375,371,377,352,340,365,348,382,407,419,400,374,380,293,307,276,321,317,257,283,251,17680
LFD1102,VECT,GD,CTCT,kWh,X,F,02/05/2001,263,291,240,264,293,278,320,305,305,291,314,282,316,284,306,318,319,330,306,365,372,344,346,355,317,356,317,318,288,301,319,308,328,306,300,272,359,338,281,322,296,272,305,299,257,281,305,293,14745
LFD1102,VECT,GD,CTCT,kWh,X,F,03/05/2001,291,258,287,290,280,264,287,265,260,304,290,296,289,290,285,320,293,316,312,318,289,320,313,322,295,292,285,307,332,273,283,259,277,300,318,326,291,296,266,292,307,278,249,270,251,235,243,225,13789
LFD1102,VECT,GD,CTCT,kWh,X,F,04/05/2001,242,241,231,223,241,239,243,229,215,252,246,240,246,270,260,288,312,291,304,320,299,283,291,274,284,295,327,339,348,280,305,289,262,268,256,266,271,284,253,263,281,240,253,244,236,223,231,239,12817
LFD1102,VECT,GD,CTCT,kWh,X,F,05/05/2001,212,194,196,196,168,196,204,223,253,225,231,232,270,269,268,297,305,293,293,317,310,341,318,297,297,286,295,329,300,283,307,332,302,253,264,233,273,265,270,242,275,278,258,242,246,257,240,241,12676
LFD1102,VECT,GD,CTCT,kWh,X,F,06/05/2001,237,263,253,274,297,357,330,339,276,327,301,339,366,379,380,371,366,319,319,280,307,297,316,295,340,330,361,326,329,333,360,370,326,369,373,282,323,291,286,319,306,316,306,297,299,277,278,310,15295
LFD1102,VECT,GD,CTCT,kWh,X,F,07/05/2001,276,267,273,292,354,326,345,318,315,328,308,304,277,319,294,339,351,325,298,325,328,349,365,345,300,296,283,310,278,322,365,367,334,349,330,358,433,372,377,291,302,291,307,288,292,306,283,296,15351
LFD1102,VECT,GD,CTCT,kWh,X,F,08/05/2001,267,276,272,263,256,223,277,276,272,280,275,301,322,329,338,348,355,339,319,296,298,289,332,328,319,341,333,326,298,294,274,291,349,402,367,323,346,334,344,341,330,357,307,313,289,295,283,268,14855
LFD1102,VECT,GD,CTCT,kWh,X,F,09/05/2001,298,272,263,277,263,252,269,259,249,235,256,294,284,276,260,332,514,530,513,479,475,487,468,495,466,512,507,514,231,247,245,292,330,358,325,290,321,279,309,298,348,288,214,224,195,193,183,171,15640
LFD1102,VECT,GD,CTCT,kWh,X,F,10/05/2001,214,221,227,248,231,252,147,178,175,161,169,205,272,288,285,290,329,335,316,302,326,331,330,314,312,294,292,323,276,288,293,283,311,279,275,270,269,272,261,256,251,270,286,239,253,242,227,226,12694
LFD1102,VECT,GD,CTCT,kWh,X,F,11/05/2001,229,253,253,254,220,232,270,232,230,264,273,266,235,227,288,315,289,287,277,278,277,258,259,279,296,285,268,259,280,289,231,268,314,299,295,277,314,280,277,287,277,277,264,254,260,240,232,243,12811
LFD1102,VECT,GD,CTCT,kWh,X,F,12/05/2001,241,258,213,216,223,240,213,204,207,255,215,227,226,252,287,255,277,278,255,270,286,283,242,205,204,222,242,241,207,221,224,248,221,206,174,178,178,180,184,185,154,152,138,153,149,119,140,130,10278
LFD1102,VECT,GD,CTCT,kWh,X,F,13/05/2001,132,141,134,109,121,150,119,118,139,125,138,141,121,138,157,167,162,176,161,202,179,164,179,183,173,194,203,175,156,174,176,190,171,162,140,157,172,156,175,151,161,171,153,124,135,115,123,136,7399
LFD1102,VECT,GD,CTCT,kWh,X,F,14/05/2001,108,114,117,148,122,135,124,116,118,145,129,134,206,272,278,280,301,285,300,341,302,285,297,283,303,254,251,281,330,309,342,301,294,363,321,320,315,298,289,294,291,265,274,242,240,257,239,253,11866
LFD1102,VECT,GD,CTCT,kWh,X,F,15/05/2001,228,232,238,267,243,239,262,231,241,243,262,240,264,274,325,327,359,337,347,350,343,363,330,330,323,322,314,354,344,330,315,336,361,342,329,320,294,304,285,339,345,313,308,325,311,291,290,296,14566
LFD1102,VECT,GD,CTCT,kWh,X,F,16/05/2001,256,254,277,272,252,274,268,250,267,280,271,284,301,298,300,292,318,346,345,350,361,347,340,350,352,343,334,338,342,329,356,349,331,345,354,329,334,326,303,308,307,303,308,290,291,270,235,253,14783
LFD1102,VECT,GD,CTCT,kWh,X,F,17/05/2001,238,249,258,246,227,223,250,249,231,234,314,320,288,293,317,337,346,317,314,343,311,293,286,295,319,328,300,289,328,366,327,315,326,322,314,351,319,332,329,322,303,310,268,278,272,278,266,250,14191
LFD1102,VECT,GD,CTCT,kWh,X,F,18/05/2001,266,249,221,246,246,223,253,226,254,259,237,236,260,284,322,322,352,360,343,335,353,333,325,317,330,263,269,280,264,318,324,336,307,278,269,268,274,242,246,245,257,268,225,229,214,216,208,227,13179
LFD1102,VECT,GD,CTCT,kWh,X,F,19/05/2001,213,209,222,219,216,226,235,205,214,209,220,218,206,204,227,216,227,257,241,263,277,260,240,220,233,267,296,229,252,223,248,279,299,305,289,262,218,225,232,217,202,209,198,206,183,182,181,194,11073
LFD1102,VECT,GD,CTCT,kWh,X,F,20/05/2001,198,193,170,193,178,175,189,198,185,175,206,186,195,204,206,203,213,220,229,284,275,265,266,269,260,266,282,265,298,265,250,281,262,261,188,181,212,197,193,197,192,185,188,184,176,171,183,162,10374
LFD1102,VECT,GD,CTCT,kWh,X,F,21/05/2001,163,167,174,186,171,170,175,174,164,165,160,157,156,163,236,306,293,372,362,379,343,336,331,323,305,328,332,309,280,292,291,330,348,322,317,320,312,318,287,275,255,278,275,259,259,275,274,252,12719
LFD1102,VECT,GD,CTCT,kWh,X,F,22/05/2001,244,269,277,262,257,272,276,271,244,252,243,250,275,306,314,320,342,315,294,323,352,331,331,296,286,290,289,267,310,283,279,281,281,275,250,253,250,249,236,233,246,233,214,230,227,198,204,224,13004
LFD1102,VECT,GD,CTCT,kWh,X,F,23/05/2001,186,198,200,173,178,172,169,170,180,177,171,205,230,209,237,283,249,241,269,264,239,246,261,273,234,248,239,230,211,259,251,242,255,264,236,254,250,255,237,249,233,234,233,234,208,216,216,214,10882
LFD1102,VECT,GD,CTCT,kWh,X,F,24/05/2001,200,222,200,202,209,198,199,205,206,206,206,237,225,235,261,256,256,260,260,258,243,262,246,237,245,244,242,257,271,247,264,262,246,285,278,272,240,246,249,228,211,252,221,198,194,214,200,205,11260
LFD1102,VECT,GD,CTCT,kWh,X,F,25/05/2001,214,205,204,208,209,194,207,212,206,205,213,220,222,212,242,250,245,273,274,264,264,280,277,266,256,259,235,245,262,264,267,272,287,281,266,250,216,195,183,191,178,169,178,177,165,164,188,162,10876
LFD1102,VECT,GD,CTCT,kWh,X,F,26/05/2001,155,175,157,168,159,174,161,160,165,178,197,214,203,214,236,241,305,270,267,267,301,277,246,269,254,238,254,256,240,266,291,260,249,267,233,209,207,221,202,192,189,196,187,181,160,145,171,148,10375
LFD1102,VECT,GD,CTCT,kWh,X,F,27/05/2001,158,180,167,146,157,152,153,162,160,147,159,175,190,176,219,247,234,252,276,276,248,248,255,259,240,244,253,241,234,232,243,289,263,255,240,207,224,204,200,194,188,178,177,163,191,192,175,166,9989
LFD1102,VECT,GD,CTCT,kWh,X,F,28/05/2001,180,153,142,168,166,158,162,147,157,171,159,151,151,181,214,237,238,285,301,301,246,229,198,242,223,191,189,184,220,275,271,258,232,229,232,223,224,242,219,219,214,216,194,193,189,204,193,189,9960
LFD1102,VECT,GD,CTCT,kWh,X,F,29/05/2001,167,183,180,185,166,179,187,194,172,170,160,160,165,157,188,269,244,236,233,232,243,229,251,238,237,249,235,244,245,204,250,255,260,234,244,254,255,240,232,243,216,230,223,223,217,177,177,174,10306
LFD1102,VECT,GD,CTCT,kWh,X,F,30/05/2001,184,167,170,191,185,167,168,157,186,184,190,199,206,213,213,258,250,250,267,264,268,246,215,210,210,210,203,287,247,277,309,340,334,348,245,258,236,261,239,246,232,219,228,204,217,173,178,165,10874
LFD1102,VECT,GD,CTCT,kWh,X,F,31/05/2001,171,193,168,200,180,165,172,151,176,166,165,170,196,236,250,254,267,269,251,276,278,542,620,644,622,644,658,572,595,581,552,567,258,249,191,148,173,143,150,147,147,128,135,138,122,115,103,83,13381
LFD1102,VECT,GD,CTCT,kWh,X,F,01/06/2001,78,86,84,83,97,97,78,82,107,83,72,83,118,148,178,205,201,194,51,2,3,3,3,3,4,4,3,36,193,169,179,178,239,171,192,166,144,140,136,140,134,112,94,108,97,90,75,86,5029
LFD1102,VECT,GD,CTCT,kWh,X,F,02/06/2001,82,81,76,77,52,58,104,112,101,76,75,100,111,102,105,94,89,133,137,121,112,139,185,160,142,163,180,194,166,153,180,166,152,156,157,143,154,165,170,131,121,119,155,129,112,86,109,108,5993
LFD1102,VECT,GD,CTCT,kWh,X,F,03/06/2001,103,75,64,68,101,100,75,71,74,86,91,87,95,95,102,124,118,109,134,130,140,138,149,150,153,156,150,145,131,142,177,147,159,154,165,155,152,144,134,127,129,146,121,104,101,95,112,101,5779
LFD1102,VECT,GD,CTCT,kWh,X,F,04/06/2001,85,86,79,71,77,87,81,93,73,74,80,105,108,102,171,145,116,149,138,126,120,148,154,157,137,149,152,147,122,120,139,158,146,132,138,152,150,155,141,124,114,127,142,106,82,82,75,101,5716
LFD1102,VECT,GD,CTCT,kWh,X,F,05/06/2001,114,77,67,69,79,97,107,80,78,67,81,90,96,103,198,286,309,305,289,290,253,268,243,278,289,272,306,295,273,256,268,289,302,296,189,177,172,159,156,160,153,134,123,141,126,116,96,96,8768
LFD1102,VECT,GD,CTCT,kWh,X,F,06/06/2001,82,78,84,125,102,86,93,107,111,120,99,105,137,222,260,261,210,220,206,187,185,187,179,190,183,169,161,165,143,167,173,175,221,284,228,171,163,143,134,151,121,119,110,95,92,103,76,61,7244
LFD1102,VECT,GD,CTCT,kWh,X,F,07/06/2001,57,67,70,61,76,70,72,86,105,83,59,82,158,154,190,215,213,223,207,223,238,246,211,206,217,221,218,233,210,238,234,254,266,235,190,190,173,196,174,166,159,165,137,134,133,132,110,99,7856
LFD1102,VECT,GD,CTCT,kWh,X,F,08/06/2001,116,91,105,113,129,108,107,114,120,105,117,134,121,123,134,163,162,163,171,174,147,160,157,146,151,169,178,209,205,185,178,200,177,166,177,164,160,157,155,156,149,132,123,133,115,119,113,113,6964
LFD1102,VECT,GD,CTCT,kWh,X,F,09/06/2001,133,116,106,106,119,127,120,105,118,133,137,124,122,124,145,153,135,139,149,152,133,122,139,144,138,150,156,152,147,142,143,138,156,176,162,141,122,145,149,118,113,106,130,110,111,120,135,106,6367
LFD1102,VECT,GD,CTCT,kWh,X,F,10/06/2001,90,107,125,95,97,128,119,104,106,141,113,107,114,148,126,132,133,153,144,154,145,165,147,160,165,149,140,131,150,162,189,162,147,158,181,148,161,157,160,148,135,138,145,124,111,131,131,102,6578
LFD1102,VECT,GD,CTCT,kWh,X,F,11/06/2001,102,107,129,106,100,124,115,109,104,119,105,127,160,151,155,166,169,176,163,158,161,168,165,155,142,157,150,186,169,209,228,243,228,251,233,175,160,153,147,150,133,124,139,141,98,78,68,91,7147
LFD1102,VECT,GD,CTCT,kWh,X,F,12/06/2001,72,73,91,99,69,65,85,73,69,77,91,84,89,143,195,208,214,216,251,225,224,229,215,240,245,217,207,209,218,201,204,221,232,278,228,154,137,133,124,130,124,124,109,107,100,82,89,86,7356
LFD1102,VECT,GD,CTCT,kWh,X,F,13/06/2001,85,90,68,77,96,96,102,92,93,98,79,80,109,128,173,196,258,261,241,202,190,228,220,232,176,204,209,188,203,185,202,188,198,187,188,165,146,161,155,137,123,133,146,135,95,86,104,95,7303
LFD1102,VECT,GD,CTCT,kWh,X,F,14/06/2001,106,96,103,95,93,115,118,106,102,101,125,120,110,112,140,221,246,223,214,229,170,185,217,214,206,225,250,201,187,208,207,175,178,218,184,166,153,141,119,130,122,111,119,104,84,64,62,101,7276
LFD1102,VECT,GD,CTCT,kWh,X,F,15/06/2001,80,80,72,91,97,79,91,91,104,88,76,104,129,160,157,180,182,182,186,172,160,159,160,156,157,156,133,165,150,160,149,152,140,171,163,157,141,177,155,148,133,145,140,126,119,114,129,103,6519
LFD1102,VECT,GD,CTCT,kWh,X,F,16/06/2001,102,94,102,115,112,117,125,138,121,128,139,137,137,151,160,150,159,146,138,146,150,150,123,136,145,136,129,133,150,133,97,106,123,142,119,106,131,146,133,110,98,114,107,94,86,115,112,99,6040
LFD1102,VECT,GD,CTCT,kWh,X,F,17/06/2001,88,86,107,94,92,103,104,106,101,115,125,133,145,137,150,134,143,140,117,106,117,99,112,105,108,110,113,109,99,94,125,118,129,139,151,153,161,151,149,139,140,146,137,114,102,114,102,98,5760
LFD1102,VECT,GD,CTCT,kWh,X,F,18/06/2001,96,92,98,78,99,104,95,91,82,110,113,118,138,153,167,157,193,176,162,174,166,184,139,129,125,136,129,122,123,110,113,123,122,169,165,185,167,176,152,143,136,121,124,115,120,113,106,107,6316
LFD1102,VECT,GD,CTCT,kWh,X,F,19/06/2001,84,88,80,106,101,89,95,107,110,102,98,118,128,122,157,167,144,124,131,109,3,3,3,3,3,3,3,45,187,207,204,216,277,229,189,174,168,155,150,148,153,147,108,98,87,69,60,68,5420
LFD1102,VECT,GD,CTCT,kWh,X,F,20/06/2001,50,69,61,67,78,72,63,83,96,77,74,86,91,100,137,157,141,147,156,152,134,127,130,28,2,27,135,122,115,119,119,168,147,130,146,137,140,139,143,148,137,122,98,94,73,62,66,75,5040
LFD1102,VECT,GD,CTCT,kWh,X,F,21/06/2001,83,78,63,60,65,84,71,53,61,59,64,59,92,112,114,124,136,142,143,142,142,147,154,146,115,136,137,143,142,134,146,147,154,132,128,108,99,114,106,106,93,111,76,75,60,47,77,68,5048
LFD1102,VECT,GD,CTCT,kWh,X,F,22/06/2001,37,43,31,52,50,69,57,54,51,52,76,69,105,112,146,128,156,186,210,226,216,213,199,195,197,200,232,200,201,210,208,210,210,210,185,126,110,103,117,118,119,111,88,69,60,90,70,69,6246
LFD1102,VECT,GD,CTCT,kWh,X,F,23/06/2001,69,64,65,66,62,47,70,80,88,71,56,66,81,121,187,199,200,204,192,203,170,168,183,177,185,184,186,178,168,175,163,124,128,124,107,107,136,114,112,109,109,106,120,103,96,96,92,98,6009
LFD1102,VECT,GD,CTCT,kWh,X,F,24/06/2001,104,120,92,85,92,91,103,94,105,106,82,96,109,110,137,175,190,193,201,183,178,178,163,164,151,150,149,174,186,200,169,152,159,157,160,113,90,86,80,92,74,63,55,45,59,73,82,56,5926
LFD1102,VECT,GD,CTCT,kWh,X,F,25/06/2001,51,61,63,65,63,48,58,68,58,70,64,67,113,118,158,152,152,160,153,141,142,151,148,142,144,148,131,137,131,129,129,133,185,246,210,214,182,175,181,154,152,137,129,129,120,147,118,119,6146
LFD1102,VECT,GD,CTCT,kWh,X,F,26/06/2001,110,113,106,96,106,107,115,129,124,113,104,121,156,171,204,203,211,207,216,212,196,210,191,183,194,184,174,174,169,191,205,214,212,210,218,212,187,173,185,202,180,169,177,178,167,179,164,147,8169
LFD1102,VECT,GD,CTCT,kWh,X,F,27/06/2001,140,146,134,134,158,161,134,140,136,145,143,166,174,183,197,201,228,222,224,227,220,218,207,210,226,208,200,223,220,211,219,205,212,234,221,203,197,191,199,173,166,181,173,159,149,130,137,148,8833
LFD1102,VECT,GD,CTCT,kWh,X,F,28/06/2001,155,157,178,145,137,149,148,170,161,162,163,160,174,197,215,225,244,232,204,202,199,181,187,182,195,195,186,182,190,202,178,177,194,196,200,196,192,181,181,187,182,176,174,167,154,137,140,144,8633
LFD1102,VECT,GD,CTCT,kWh,X,F,29/06/2001,133,132,148,126,144,150,135,139,130,151,142,146,160,165,176,180,202,215,211,210,180,180,185,194,194,195,203,175,165,170,180,184,176,193,194,220,193,157,175,166,164,171,162,139,127,123,113,124,7997
LFD1102,VECT,GD,CTCT,kWh,X,F,30/06/2001,104,102,95,89,90,108,101,102,98,101,109,113,122,136,114,143,168,185,145,163,177,192,176,176,173,176,180,154,145,176,183,150,128,152,170,157,159,154,163,168,126,120,133,127,107,102,108,109,6629
LFD1102,VECT,GD,CTCT,kWh,X,F,01/07/2001,93,102,95,112,128,135,107,96,110,118,101,103,126,126,121,116,127,142,121,111,106,103,101,101,100,103,98,111,108,103,104,107,109,110,117,128,132,150,151,146,141,133,129,123,111,101,88,91,5495
LFD1102,VECT,GD,CTCT,kWh,X,F,02/07/2001,94,97,87,88,90,92,92,94,95,96,96,102,111,116,143,153,148,153,158,154,139,149,163,169,217,229,285,295,283,272,287,264,209,221,199,204,199,190,193,182,168,156,162,185,175,155,130,119,7858
LFD1102,VECT,GD,CTCT,kWh,X,F,03/07/2001,128,143,143,146,144,164,166,158,137,150,155,155,132,162,191,216,179,221,266,272,292,271,270,266,243,237,225,213,206,214,219,264,275,263,278,278,255,219,203,187,194,182,185,171,140,129,126,111,9544
LFD1102,VECT,GD,CTCT,kWh,X,F,04/07/2001,135,193,152,136,142,139,117,129,126,150,168,179,164,203,245,220,233,235,230,222,202,184,166,174,179,183,186,181,181,207,212,270,265,247,229,212,186,119,103,87,128,103,85,72,69,94,55,32,7929
LFD1102,VECT,GD,CTCT,kWh,X,F,05/07/2001,45,60,56,71,45,46,64,69,73,58,57,57,63,111,182,186,153,150,159,173,186,182,184,163,144,144,152,150,161,164,166,172,184,267,283,264,190,160,168,159,152,125,135,94,129,73,57,50,6336
LFD1102,VECT,GD,CTCT,kWh,X,F,06/07/2001,50,52,48,46,54,56,62,62,60,60,66,76,86,109,164,180,192,200,204,179,122,112,105,99,92,108,99,123,110,103,97,101,105,134,193,207,202,182,173,166,157,166,142,121,130,151,132,112,5750
LFD1102,VECT,GD,CTCT,kWh,X,F,07/07/2001,128,128,123,112,115,111,139,132,127,109,107,134,88,93,102,99,98,102,99,102,122,157,160,108,111,108,109,102,107,111,124,117,115,120,212,214,192,190,179,166,156,136,121,105,125,137,105,83,6040
LFD1102,VECT,GD,CTCT,kWh,X,F,08/07/2001,102,113,96,90,78,108,113,81,98,93,111,93,75,85,94,88,92,91,102,102,98,100,106,104,105,110,106,103,102,103,97,97,94,103,109,117,111,109,111,110,102,97,90,89,85,82,69,66,4680
LFD1102,VECT,GD,CTCT,kWh,X,F,09/07/2001,68,65,66,67,68,63,65,62,49,49,49,55,79,95,121,110,116,129,131,120,110,106,95,125,126,123,119,116,117,119,122,124,123,119,181,180,155,165,154,156,128,132,104,107,106,86,76,102,5103
LFD1102,VECT,GD,CTCT,kWh,X,F,10/07/2001,55,44,62,77,73,75,65,41,74,98,39,64,99,134,172,181,181,178,188,220,242,163,154,172,225,240,239,235,205,198,192,193,220,265,327,277,209,185,190,215,196,163,178,160,153,118,102,100,7636
LFD1102,VECT,GD,CTCT,kWh,X,F,11/07/2001,110,99,109,130,84,99,81,118,133,79,94,92,96,110,148,206,245,267,255,248,240,223,240,215,219,198,194,208,188,195,222,211,205,224,321,267,196,186,171,179,158,172,146,145,127,106,82,124,8165
LFD1102,VECT,GD,CTCT,kWh,X,F,12/07/2001,89,109,94,105,113,85,120,105,118,126,96,116,135,117,132,180,225,202,201,184,191,188,200,222,220,198,215,212,189,210,192,191,222,270,265,258,254,228,210,160,154,148,124,116,140,121,140,108,7998
LFD1102,VECT,GD,CTCT,kWh,X,F,13/07/2001,102,122,110,130,98,103,88,135,131,82,98,98,99,136,141,151,163,130,136,154,172,170,148,197,211,187,200,211,186,162,177,188,214,191,194,166,158,173,157,133,99,106,86,121,125,85,82,73,6779
LFD1102,VECT,GD,CTCT,kWh,X,F,14/07/2001,86,117,78,69,66,60,98,107,68,71,72,84,66,84,87,94,102,116,127,135,140,137,137,133,140,138,137,124,124,121,87,92,117,116,214,221,199,162,153,172,145,135,140,132,128,138,123,79,5671
LFD1102,VECT,GD,CTCT,kWh,X,F,15/07/2001,94,131,117,90,92,106,135,103,85,99,120,108,109,132,151,150,143,152,163,165,179,188,193,180,184,187,184,187,175,177,160,153,180,216,282,274,253,243,232,231,228,198,203,192,214,169,161,172,8040
LFD1102,VECT,GD,CTCT,kWh,X,F,16/07/2001,179,185,149,159,160,162,176,156,193,131,157,168,155,156,182,192,214,224,223,221,182,143,157,206,227,220,147,147,157,165,153,161,146,167,241,261,246,231,221,175,176,185,154,178,137,160,149,146,8580
LFD1102,VECT,GD,CTCT,kWh,X,F,17/07/2001,141,164,164,152,143,158,160,184,145,152,155,174,133,141,171,190,202,204,210,207,208,187,176,179,174,166,159,170,155,153,158,208,226,243,258,253,237,194,176,153,164,168,136,145,149,149,118,122,8334
LFD1102,VECT,GD,CTCT,kWh,X,F,18/07/2001,136,137,114,110,133,121,122,125,133,143,118,123,151,166,215,225,229,262,269,230,225,224,232,219,211,209,213,225,224,210,250,206,208,214,237,245,165,174,143,167,151,152,136,126,148,130,106,112,8524